TimeCST,TemperatureF,Dew PointF,Humidity,Sea Level PressureIn,VisibilityMPH,Wind Direction,Wind SpeedMPH,Gust SpeedMPH,PrecipitationIn,Events,Conditions,WindDirDegrees,DateUTC
12:15 AM,44.6,33.8,66,30.35,7.0,NNE,6.9,-,N/A,,Clear,30,2013-01-05 06:15:00
12:35 AM,44.6,32.0,61,30.35,10.0,NE,5.8,-,N/A,,Clear,40,2013-01-05 06:35:00
12:55 AM,44.6,32.0,61,30.34,10.0,NE,3.5,-,N/A,,Clear,50,2013-01-05 06:55:00
1:15 AM,44.6,32.0,61,30.34,10.0,NE,4.6,-,N/A,,Clear,50,2013-01-05 07:15:00
1:35 AM,44.6,32.0,61,30.34,7.0,NNE,4.6,-,N/A,,Clear,30,2013-01-05 07:35:00
1:55 AM,42.8,32.0,66,30.34,7.0,Calm,Calm,-,N/A,,Clear,0,2013-01-05 07:55:00
2:15 AM,42.8,32.0,66,30.34,10.0,NNE,5.8,-,N/A,,Clear,20,2013-01-05 08:15:00
2:35 AM,42.8,32.0,66,30.34,7.0,North,5.8,-,N/A,,Clear,10,2013-01-05 08:35:00
2:55 AM,42.8,32.0,66,30.34,7.0,North,6.9,-,N/A,,Clear,10,2013-01-05 08:55:00
3:15 AM,42.8,32.0,66,30.35,7.0,NNE,3.5,-,N/A,,Clear,30,2013-01-05 09:15:00
3:35 AM,42.8,32.0,66,30.34,10.0,NE,4.6,-,N/A,,Clear,50,2013-01-05 09:35:00
3:55 AM,42.8,32.0,66,30.33,10.0,NE,4.6,-,N/A,,Clear,40,2013-01-05 09:55:00
4:15 AM,42.8,32.0,66,30.33,10.0,NE,6.9,-,N/A,,Clear,40,2013-01-05 10:15:00
4:35 AM,42.8,32.0,66,30.33,7.0,NE,5.8,-,N/A,,Clear,40,2013-01-05 10:35:00
4:55 AM,42.8,32.0,66,30.32,10.0,NNE,6.9,-,N/A,,Clear,30,2013-01-05 10:55:00
5:15 AM,44.6,32.0,61,30.33,10.0,NE,6.9,-,N/A,,Clear,50,2013-01-05 11:15:00
5:35 AM,44.6,32.0,61,30.33,7.0,NE,6.9,-,N/A,,Clear,40,2013-01-05 11:35:00
5:55 AM,44.6,32.0,61,30.33,10.0,NE,8.1,-,N/A,,Clear,40,2013-01-05 11:55:00
6:55 AM,44.6,30.2,57,30.34,7.0,ENE,6.9,-,N/A,,Clear,70,2013-01-05 12:55:00
7:15 AM,44.6,30.2,57,30.34,7.0,ENE,6.9,-,N/A,,Clear,70,2013-01-05 13:15:00
7:35 AM,46.4,30.2,53,30.35,7.0,East,5.8,-,N/A,,Clear,80,2013-01-05 13:35:00
7:55 AM,46.4,30.2,53,30.35,5.0,ENE,8.1,-,N/A,,Haze,70,2013-01-05 13:55:00
8:15 AM,48.2,30.2,50,30.36,7.0,ENE,8.1,-,N/A,,Clear,60,2013-01-05 14:15:00
8:35 AM,48.2,30.2,50,30.35,7.0,ENE,8.1,-,N/A,,Clear,70,2013-01-05 14:35:00
8:55 AM,50.0,30.2,47,30.36,7.0,ENE,8.1,-,N/A,,Clear,60,2013-01-05 14:55:00
9:15 AM,50.0,30.2,47,30.36,7.0,East,6.9,-,N/A,,Clear,80,2013-01-05 15:15:00
9:35 AM,50.0,30.2,47,30.36,7.0,ENE,6.9,-,N/A,,Clear,60,2013-01-05 15:35:00
9:55 AM,51.8,32.0,47,30.37,7.0,NE,6.9,-,N/A,,Clear,50,2013-01-05 15:55:00
10:15 AM,51.8,32.0,47,30.36,7.0,ENE,6.9,-,N/A,,Clear,70,2013-01-05 16:15:00
10:35 AM,51.8,32.0,47,30.34,7.0,ENE,10.4,-,N/A,,Clear,70,2013-01-05 16:35:00
10:55 AM,53.6,32.0,44,30.34,7.0,East,8.1,-,N/A,,Clear,80,2013-01-05 16:55:00
11:15 AM,53.6,32.0,44,30.34,7.0,NE,6.9,-,N/A,,Clear,50,2013-01-05 17:15:00
11:35 AM,53.6,32.0,44,30.33,7.0,ENE,8.1,-,N/A,,Clear,70,2013-01-05 17:35:00
11:55 AM,55.4,32.0,41,30.31,7.0,East,8.1,-,N/A,,Clear,90,2013-01-05 17:55:00
12:15 PM,55.4,32.0,41,30.29,7.0,East,5.8,-,N/A,,Clear,90,2013-01-05 18:15:00
12:35 PM,55.4,32.0,41,30.30,7.0,East,6.9,-,N/A,,Clear,90,2013-01-05 18:35:00
12:55 PM,55.4,30.2,38,30.28,7.0,East,6.9,-,N/A,,Clear,90,2013-01-05 18:55:00
1:15 PM,55.4,32.0,41,30.27,7.0,East,8.1,-,N/A,,Clear,90,2013-01-05 19:15:00
1:35 PM,55.4,32.0,41,30.29,7.0,East,3.5,-,N/A,,Clear,80,2013-01-05 19:35:00
1:55 PM,55.4,32.0,41,30.30,7.0,Calm,Calm,-,N/A,,Clear,0,2013-01-05 19:55:00
2:15 PM,55.4,32.0,41,30.30,7.0,Calm,Calm,-,N/A,,Clear,0,2013-01-05 20:15:00
2:35 PM,55.4,32.0,41,30.30,5.0,Calm,Calm,-,N/A,,Haze,0,2013-01-05 20:35:00
3:15 PM,55.4,33.8,44,30.29,10.0,ENE,4.6,-,N/A,,Clear,60,2013-01-05 21:15:00
3:35 PM,55.4,35.6,47,30.28,7.0,ENE,3.5,-,N/A,,Clear,60,2013-01-05 21:35:00
3:55 PM,55.4,35.6,47,30.27,7.0,ENE,6.9,-,N/A,,Clear,70,2013-01-05 21:55:00
4:35 PM,51.8,39.2,62,30.30,7.0,NE,5.8,-,N/A,,Overcast,40,2013-01-05 22:35:00
4:55 PM,53.6,39.2,58,30.28,7.0,ENE,6.9,-,N/A,,Overcast,60,2013-01-05 22:55:00
5:15 PM,53.6,37.4,54,30.28,10.0,East,6.9,-,N/A,,Overcast,80,2013-01-05 23:15:00
5:35 PM,53.6,37.4,54,30.29,7.0,North,4.6,-,N/A,,Overcast,350,2013-01-05 23:35:00
5:55 PM,53.6,37.4,54,30.29,7.0,North,6.9,-,N/A,,Overcast,360,2013-01-05 23:55:00
6:15 PM,51.8,37.4,58,30.29,10.0,NNE,9.2,-,N/A,,Overcast,20,2013-01-06 00:15:00
6:35 PM,51.8,37.4,58,30.29,7.0,NE,6.9,-,N/A,,Overcast,40,2013-01-06 00:35:00
6:55 PM,51.8,37.4,58,30.29,7.0,NE,6.9,-,N/A,,Overcast,40,2013-01-06 00:55:00
7:15 PM,51.8,37.4,58,30.29,10.0,NE,8.1,-,N/A,,Overcast,40,2013-01-06 01:15:00
7:35 PM,51.8,37.4,58,30.29,7.0,NE,6.9,-,N/A,,Overcast,40,2013-01-06 01:35:00
7:55 PM,51.8,39.2,62,30.29,7.0,NE,6.9,-,N/A,,Overcast,40,2013-01-06 01:55:00
8:15 PM,51.8,37.4,58,30.28,7.0,NNE,6.9,-,N/A,,Overcast,30,2013-01-06 02:15:00
8:35 PM,51.8,39.2,62,30.28,7.0,NNE,6.9,-,N/A,,Overcast,30,2013-01-06 02:35:00
9:15 PM,51.8,37.4,58,30.27,10.0,NNE,6.9,-,N/A,,Overcast,30,2013-01-06 03:15:00
9:35 PM,51.8,37.4,58,30.26,7.0,NE,5.8,-,N/A,,Overcast,50,2013-01-06 03:35:00
9:55 PM,51.8,37.4,58,30.27,7.0,NE,5.8,-,N/A,,Overcast,40,2013-01-06 03:55:00
10:15 PM,51.8,37.4,58,30.25,10.0,NE,5.8,-,N/A,,Overcast,50,2013-01-06 04:15:00
10:35 PM,51.8,37.4,58,30.25,7.0,NE,6.9,-,N/A,,Overcast,50,2013-01-06 04:35:00
10:55 PM,51.8,37.4,58,30.25,7.0,NNE,5.8,-,N/A,,Overcast,30,2013-01-06 04:55:00
11:15 PM,51.8,37.4,58,30.26,10.0,Calm,Calm,-,N/A,,Overcast,0,2013-01-06 05:15:00
11:35 PM,51.8,37.4,58,30.26,7.0,Calm,Calm,-,N/A,,Overcast,0,2013-01-06 05:35:00
11:55 PM,51.8,37.4,58,30.25,7.0,NE,3.5,-,N/A,,Overcast,50,2013-01-06 05:55:00